TimeEDT,TemperatureF,Dew PointF,Humidity,Sea Level PressureIn,VisibilityMPH,Wind Direction,Wind SpeedMPH,Gust SpeedMPH,PrecipitationIn,Events,Conditions,WindDirDegrees,DateUTC
12:51 AM,46.0,42.1,86,30.00,10.0,South,8.1,-,N/A,,Overcast,180,2013-04-08 04:51:00
1:51 AM,45.0,42.1,90,29.99,10.0,South,4.6,-,N/A,,Overcast,180,2013-04-08 05:51:00
2:51 AM,43.0,41.0,93,29.98,10.0,South,5.8,-,N/A,,Scattered Clouds,170,2013-04-08 06:51:00
3:51 AM,43.0,41.0,93,29.96,8.0,South,6.9,-,N/A,,Scattered Clouds,180,2013-04-08 07:51:00
4:24 AM,41.0,39.2,93,29.98,6.0,Calm,Calm,-,N/A,,Mostly Cloudy,0,2013-04-08 08:24:00
4:51 AM,39.9,39.0,97,29.99,5.0,Calm,Calm,-,N/A,,Mostly Cloudy,0,2013-04-08 08:51:00
5:13 AM,37.4,37.4,100,29.99,3.0,Calm,Calm,-,N/A,,Scattered Clouds,0,2013-04-08 09:13:00
5:51 AM,37.0,37.0,100,30.00,3.0,Calm,Calm,-,N/A,,Mostly Cloudy,0,2013-04-08 09:51:00
6:51 AM,37.9,37.0,97,30.02,3.0,Calm,Calm,-,N/A,,Overcast,0,2013-04-08 10:51:00
7:51 AM,43.0,41.0,93,30.05,7.0,Calm,Calm,-,N/A,,Mostly Cloudy,0,2013-04-08 11:51:00
8:51 AM,48.0,39.0,71,30.05,10.0,WNW,3.5,-,N/A,,Mostly Cloudy,300,2013-04-08 12:51:00
9:51 AM,51.1,37.0,59,30.07,10.0,NNW,4.6,-,N/A,,Mostly Cloudy,340,2013-04-08 13:51:00
10:51 AM,55.0,35.1,47,30.08,10.0,NNW,6.9,18.4,N/A,,Scattered Clouds,330,2013-04-08 14:51:00
11:51 AM,55.9,33.1,42,30.07,10.0,NNW,8.1,-,N/A,,Partly Cloudy,330,2013-04-08 15:51:00
12:51 PM,59.0,33.1,38,30.06,10.0,Variable,4.6,-,N/A,,Clear,0,2013-04-08 16:51:00
1:51 PM,62.1,34.0,35,30.05,10.0,Calm,Calm,-,N/A,,Partly Cloudy,0,2013-04-08 17:51:00
2:51 PM,64.9,34.0,32,30.02,10.0,Variable,4.6,-,N/A,,Scattered Clouds,0,2013-04-08 18:51:00
3:51 PM,66.9,34.0,30,30.01,10.0,ESE,4.6,-,N/A,,Mostly Cloudy,110,2013-04-08 19:51:00
4:51 PM,68.0,34.0,28,30.01,10.0,Variable,3.5,-,N/A,,Mostly Cloudy,0,2013-04-08 20:51:00
5:51 PM,66.9,34.0,30,30.01,10.0,East,5.8,-,N/A,,Mostly Cloudy,100,2013-04-08 21:51:00
6:51 PM,64.0,34.0,33,30.02,10.0,East,5.8,-,N/A,,Overcast,100,2013-04-08 22:51:00
7:51 PM,61.0,35.1,38,30.02,10.0,Calm,Calm,-,N/A,,Mostly Cloudy,0,2013-04-08 23:51:00
8:51 PM,60.1,36.0,41,30.04,10.0,SSE,3.5,-,N/A,,Overcast,160,2013-04-09 00:51:00
9:51 PM,59.0,37.0,44,30.05,10.0,South,5.8,-,N/A,,Overcast,180,2013-04-09 01:51:00
10:51 PM,57.9,39.9,51,30.04,10.0,South,8.1,-,N/A,,Overcast,170,2013-04-09 02:51:00
11:51 PM,55.0,41.0,59,30.02,10.0,South,8.1,-,N/A,,Overcast,170,2013-04-09 03:51:00